Taunton, MA

12:19 AM EDT on May 29, 2017 (GMT -0400)
Taunton Municipal

Weather History for KTAN - February, 2014

Change the Weather History Date:

Monday, February 10, 2014

  Actual Average Record
Temperature  
Mean Temperature 19 °F -  
Max Temperature 30 °F 35 °F 64 °F (1990)
Min Temperature 6 °F 15 °F -8 °F (1975)
Degree Days  
Heating Degree Days 46    
Moisture  
Dew Point 12 °F    
Average Humidity 66    
Maximum Humidity 89    
Minimum Humidity 38    
Precipitation  
Precipitation 0.01 in - - ()
Sea Level Pressure  
Sea Level Pressure 30.03 in    
Wind  
Wind Speed 5 mph (WNW)    
Max Wind Speed 14 mph    
Max Gust Speed 22 mph    
Visibility 9 miles    
Events Snow    
Averages and records for this station are not official NWS values.
T = Trace of Precipitation, MM = Missing Value Source: NWS Daily Summary

Daily Weather History Graph

Daily Weather History Graph

Search for Another Location

Airport or City:

Trip Planner

Search our weather history database for the weather conditions in past years. The results will help you decide how hot, cold, wet, or windy it might be!

Date:

Astronomy

Feb. 10, 2014 Rise Set
Actual Time 6:46 AM EST 5:10 PM EST
Civil Twilight 6:17 AM EST 5:39 PM EST
Nautical Twilight 5:44 AM EST 6:12 PM EST
Astronomical Twilight 5:12 AM EST 6:45 PM EST
Moon 1:35 PM EST (2/10) 3:38 AM EST (2/10)
Length of Visible Light 11h 22m
Length of Day
10h 24m
Waxing Gibbous, 84% of the Moon is Illuminated
Feb 10
Waxing Gibbous
Feb 14
Full
Feb 22
Last Quarter
Mar 1
New
Mar 8
First Quarter

Hourly Weather History & Observations

Time (EST) Temp. Windchill Dew Point Humidity Pressure Visibility Wind Dir Wind Speed Gust Speed Precip Events Conditions
12:04 AM 26.1 °F 21.9 °F 23.0 °F 88% 29.95 in 1.5 mi WSW 3.5 mph - 0.01 in Snow Light Snow
12:15 AM 26.1 °F 20.5 °F 23.0 °F 88% 29.95 in 2.5 mi WSW 4.6 mph - 0.01 in Snow Light Snow
12:20 AM 26.1 °F 21.9 °F 23.0 °F 88% 29.95 in 3.0 mi WSW 3.5 mph - 0.01 in Snow Light Snow
12:52 AM 26.1 °F 20.5 °F 21.9 °F 84% 29.94 in 5.0 mi WSW 4.6 mph - 0.01 in Snow Light Snow
1:52 AM 21.0 °F - 18.0 °F 88% 29.92 in 8.0 mi Calm Calm - 0.00 in   Partly Cloudy
2:52 AM 21.9 °F 15.7 °F 19.0 °F 89% 29.91 in 10.0 mi WSW 4.6 mph - N/A   Mostly Cloudy
3:52 AM 19.9 °F - 17.1 °F 89% 29.90 in 10.0 mi Calm Calm - N/A   Clear
4:52 AM 21.9 °F 14.5 °F 17.1 °F 82% 29.92 in 9.0 mi West 5.8 mph - N/A   Clear
5:52 AM 19.9 °F 12.1 °F 16.0 °F 85% 29.93 in 10.0 mi West 5.8 mph - N/A   Clear
6:52 AM 19.9 °F 10.1 °F 15.1 °F 81% 29.95 in 10.0 mi WNW 8.1 mph - N/A   Clear
7:52 AM 21.0 °F 13.4 °F 14.0 °F 74% 29.99 in 10.0 mi WNW 5.8 mph - N/A   Clear
8:52 AM 24.1 °F 13.7 °F 14.0 °F 65% 29.99 in 10.0 mi WNW 10.4 mph - N/A   Clear
9:52 AM 26.1 °F 16.8 °F 12.0 °F 55% 30.03 in 10.0 mi WNW 9.2 mph 16.1 mph N/A   Clear
10:52 AM 28.9 °F 18.2 °F 10.0 °F 45% 30.03 in 10.0 mi NW 13.8 mph 21.9 mph N/A   Clear
11:52 AM 30.0 °F 21.1 °F 9.0 °F 41% 30.02 in 10.0 mi NW 10.4 mph 18.4 mph N/A   Clear
12:52 PM 30.0 °F 21.1 °F 8.1 °F 40% 30.01 in 10.0 mi WNW 10.4 mph - N/A   Clear
1:52 PM 30.0 °F 20.5 °F 7.0 °F 38% 30.01 in 10.0 mi NNW 11.5 mph - N/A   Clear
2:52 PM 30.0 °F 20.0 °F 7.0 °F 38% 30.03 in 10.0 mi NNW 12.7 mph 19.6 mph N/A   Clear
3:52 PM 30.0 °F 22.4 °F 8.1 °F 40% 30.05 in 10.0 mi NW 8.1 mph - N/A   Partly Cloudy
4:52 PM 27.0 °F 19.5 °F 6.1 °F 41% 30.08 in 10.0 mi NW 6.9 mph - N/A   Clear
5:52 PM 25.0 °F 18.1 °F 6.1 °F 45% 30.12 in 10.0 mi NW 5.8 mph - N/A   Clear
6:52 PM 23.0 °F 18.4 °F 6.1 °F 48% 30.15 in 10.0 mi NW 3.5 mph - N/A   Clear
7:52 PM 21.9 °F 17.2 °F 5.0 °F 48% 30.17 in 10.0 mi NW 3.5 mph - N/A   Clear
8:52 PM 12.9 °F - 6.1 °F 74% 30.18 in 10.0 mi Calm Calm - N/A   Clear
9:52 PM 10.0 °F - 5.0 °F 80% 30.19 in 10.0 mi Calm Calm - N/A   Clear
10:52 PM 8.1 °F - 3.0 °F 80% 30.20 in 10.0 mi Calm Calm - N/A   Clear
11:52 PM 6.1 °F - 1.0 °F 80% 30.21 in 10.0 mi Calm Calm - N/A   Clear